Webcam Flughafen St.Gallen-Altenrhein

Live-Bilder und Zeitraffer LSZR / ACH.

 

Live aus Altenrhein
LIVE
LSZR 010020Z AUTO VRB01KT CAVOK M01/M01 Q1031
Zeitraffer heute
2021-03-01 00:14:30
LSZR 282250Z AUTO 18001KT CAVOK 01/01 Q1030